• In Hungary
  • List of Countries
  • For 7 days
  • Water Temperature
  • Satellite Maps
  • Weather Map
  • News
  • Weather Widgets
  • user-avatar
    Login

    Hourly Weather Izosimovo

    Today, 18 June, Monday

    Time Temperature Precipitation Wind Pressure Humidity
    00:00 +15°C° 0 mm 1 mps 750 mmHg 81%
    01:00 +15°C° 0 mm 1 mps 750 mmHg 82%
    02:00 +14°C° 0 mm 1 mps 749 mmHg 87%
    03:00 +15°C° 0 mm 1 mps 749 mmHg 84%
    04:00 +16°C° 0 mm 1 mps 749 mmHg 81%
    05:00 +18°C° 0 mm 1 mps 749 mmHg 78%
    06:00 +19°C° 0 mm 2 mps 749 mmHg 71%
    07:00 +21°C° 0 mm 2 mps 749 mmHg 65%
    08:00 +24°C° 0 mm 2 mps 749 mmHg 58%
    09:00 +25°C° 0 mm 2 mps 749 mmHg 53%
    10:00 +26°C° 0 mm 2 mps 749 mmHg 49%
    11:00 +28°C° 0 mm 3 mps 748 mmHg 44%
    12:00 +27°C° 0 mm 2 mps 748 mmHg 46%
    13:00 +27°C° 0 mm 2 mps 748 mmHg 48%
    14:00 +27°C° 0 mm 2 mps 748 mmHg 49%
    15:00 +27°C° 0 mm 2 mps 747 mmHg 52%
    16:00 +27°C° 0 mm 2 mps 747 mmHg 55%
    17:00 +26°C° 0 mm 2 mps 747 mmHg 57%
    18:00 +24°C° 0.2 mm 2 mps 747 mmHg 65%
    19:00 +23°C° 0.2 mm 2 mps 746 mmHg 74%
    20:00 +21°C° 0.2 mm 1 mps 746 mmHg 82%
    21:00 +20°C° 0 mm 1 mps 746 mmHg 85%
    22:00 +19°C° 0 mm 1 mps 746 mmHg 89%
    23:00 +18°C° 0 mm 1 mps 746 mmHg 92%

    Tomorrow, 19 June, Tuesday

    Time Temperature Precipitation Wind Pressure Humidity
    00:00 +16°C° 0 mm 1 mps 746 mmHg 94%
    01:00 +16°C° 0 mm 1 mps 746 mmHg 95%
    02:00 +16°C° 0 mm 1 mps 746 mmHg 96%
    03:00 +16°C° 0 mm 1 mps 746 mmHg 95%
    04:00 +18°C° 0 mm 1 mps 746 mmHg 93%
    05:00 +18°C° 0 mm 1 mps 745 mmHg 92%
    06:00 +20°C° 0.2 mm 1 mps 745 mmHg 87%
    07:00 +21°C° 0.2 mm 1 mps 745 mmHg 83%
    08:00 +23°C° 0.2 mm 1 mps 745 mmHg 79%
    09:00 +23°C° 0.7 mm 2 mps 745 mmHg 75%
    10:00 +24°C° 0.7 mm 3 mps 745 mmHg 71%
    11:00 +24°C° 0.7 mm 3 mps 744 mmHg 68%
    12:00 +25°C° 0.3 mm 4 mps 744 mmHg 61%
    13:00 +25°C° 0.3 mm 4 mps 744 mmHg 55%
    14:00 +26°C° 0.3 mm 4 mps 744 mmHg 49%
    15:00 +25°C° 0 mm 4 mps 743 mmHg 48%
    16:00 +25°C° 0 mm 4 mps 743 mmHg 47%
    17:00 +23°C° 0 mm 4 mps 743 mmHg 46%
    18:00 +22°C° 0 mm 4 mps 742 mmHg 53%
    19:00 +20°C° 0 mm 3 mps 742 mmHg 61%
    20:00 +18°C° 0 mm 3 mps 742 mmHg 69%
    21:00 +18°C° 0 mm 3 mps 742 mmHg 73%
    22:00 +17°C° 0 mm 3 mps 742 mmHg 76%
    23:00 +16°C° 0 mm 3 mps 742 mmHg 80%

    Day after tomorrow, 20 June, Wednesday

    Time Temperature Precipitation Wind Pressure Humidity
    00:00 +16°C° 0 mm 3 mps 742 mmHg 83%
    01:00 +14°C° 0 mm 3 mps 743 mmHg 86%
    02:00 +13°C° 0 mm 3 mps 743 mmHg 89%
    03:00 +13°C° 0 mm 3 mps 743 mmHg 88%
    04:00 +13°C° 0 mm 4 mps 743 mmHg 86%
    05:00 +13°C° 0 mm 4 mps 743 mmHg 85%
    06:00 +14°C° 0 mm 4 mps 744 mmHg 74%
    07:00 +17°C° 0 mm 4 mps 744 mmHg 64%
    08:00 +17°C° 0 mm 5 mps 744 mmHg 53%
    09:00 +19°C° 0 mm 5 mps 744 mmHg 48%
    10:00 +20°C° 0 mm 5 mps 744 mmHg 43%
    11:00 +22°C° 0 mm 5 mps 744 mmHg 37%
    12:00 +22°C° 0 mm 5 mps 744 mmHg 37%
    13:00 +22°C° 0 mm 5 mps 744 mmHg 37%
    14:00 +22°C° 0 mm 5 mps 744 mmHg 37%
    15:00 +22°C° 0 mm 4 mps 744 mmHg 41%
    16:00 +21°C° 0 mm 4 mps 744 mmHg 45%
    17:00 +20°C° 0 mm 3 mps 744 mmHg 49%
    18:00 +19°C° 0 mm 3 mps 744 mmHg 53%
    19:00 +18°C° 0 mm 3 mps 744 mmHg 58%
    20:00 +17°C° 0 mm 2 mps 744 mmHg 63%
    21:00 +16°C° 0 mm 2 mps 744 mmHg 67%
    22:00 +14°C° 0 mm 2 mps 745 mmHg 71%
    23:00 +13°C° 0 mm 2 mps 745 mmHg 76%

    21 June, Thursday

    Time Temperature Precipitation Wind Pressure Humidity
    00:00 +12°C° 0 mm 2 mps 745 mmHg 78%
    01:00 +10°C° 0 mm 2 mps 745 mmHg 81%
    02:00 +9°C° 0 mm 2 mps 745 mmHg 83%
    03:00 +10°C° 0 mm 3 mps 745 mmHg 78%
    04:00 +11°C° 0 mm 3 mps 745 mmHg 73%
    05:00 +12°C° 0 mm 3 mps 745 mmHg 68%
    06:00 +13°C° 0 mm 4 mps 745 mmHg 62%
    07:00 +15°C° 0 mm 4 mps 745 mmHg 56%
    08:00 +17°C° 0 mm 4 mps 745 mmHg 50%
    09:00 +18°C° 0 mm 4 mps 745 mmHg 48%
    10:00 +18°C° 0 mm 4 mps 745 mmHg 47%
    11:00 +19°C° 0 mm 4 mps 745 mmHg 46%
    12:00 +20°C° 0 mm 4 mps 745 mmHg 46%
    13:00 +21°C° 0 mm 4 mps 744 mmHg 46%
    14:00 +21°C° 0 mm 4 mps 744 mmHg 47%
    15:00 +21°C° 0 mm 3 mps 744 mmHg 52%
    16:00 +21°C° 0 mm 3 mps 744 mmHg 57%
    17:00 +21°C° 0 mm 2 mps 743 mmHg 62%
    18:00 +20°C° 0 mm 2 mps 743 mmHg 68%
    19:00 +20°C° 0 mm 1 mps 743 mmHg 73%
    20:00 +19°C° 0 mm 1 mps 743 mmHg 78%
    21:00 +18°C° 0 mm 1 mps 743 mmHg 80%
    22:00 +17°C° 0 mm 2 mps 743 mmHg 82%
    23:00 +17°C° 0 mm 2 mps 742 mmHg 83%

    22 June, Friday

    Time Temperature Precipitation Wind Pressure Humidity
    00:00 +16°C° 0 mm 2 mps 742 mmHg 85%
    01:00 +16°C° 0 mm 3 mps 742 mmHg 87%
    02:00 +16°C° 0 mm 3 mps 741 mmHg 88%
    03:00 +17°C° 0 mm 3 mps 741 mmHg 86%
    04:00 +17°C° 0 mm 4 mps 741 mmHg 84%
    05:00 +18°C° 0 mm 4 mps 740 mmHg 81%
    06:00 +19°C° 0 mm 5 mps 740 mmHg 74%
    07:00 +21°C° 0 mm 5 mps 739 mmHg 66%
    08:00 +23°C° 0 mm 6 mps 739 mmHg 58%
    09:00 +23°C° 0.1 mm 6 mps 739 mmHg 59%
    10:00 +24°C° 0.1 mm 6 mps 738 mmHg 60%
    11:00 +26°C° 0.1 mm 6 mps 738 mmHg 62%
    12:00 +24°C° 0.6 mm 6 mps 738 mmHg 69%
    13:00 +23°C° 0.6 mm 6 mps 738 mmHg 75%
    14:00 +23°C° 0.6 mm 6 mps 738 mmHg 82%
    15:00 +22°C° 0.6 mm 5 mps 738 mmHg 86%
    16:00 +21°C° 0.6 mm 4 mps 738 mmHg 90%
    17:00 +20°C° 0.6 mm 3 mps 738 mmHg 93%
    18:00 +19°C° 0.2 mm 3 mps 739 mmHg 94%
    19:00 +19°C° 0.2 mm 2 mps 739 mmHg 95%
    20:00 +18°C° 0.2 mm 2 mps 739 mmHg 95%
    21:00 +19°C° 0.3 mm 1 mps 739 mmHg 95%
    22:00 +18°C° 0.3 mm 1 mps 739 mmHg 95%
    23:00 +16°C° 0.3 mm 1 mps 740 mmHg 95%

    23 June, Saturday

    Time Temperature Precipitation Wind Pressure Humidity
    00:00 +16°C° 0.2 mm 1 mps 740 mmHg 94%
    01:00 +15°C° 0.2 mm 1 mps 740 mmHg 93%
    02:00 +15°C° 0.2 mm 1 mps 740 mmHg 93%
    03:00 +15°C° 0.3 mm 1 mps 740 mmHg 93%
    04:00 +14°C° 0.3 mm 1 mps 741 mmHg 93%
    05:00 +14°C° 0.3 mm 1 mps 741 mmHg 93%
    06:00 +14°C° 0.2 mm 1 mps 741 mmHg 93%
    07:00 +14°C° 0.2 mm 1 mps 741 mmHg 94%
    08:00 +14°C° 0.2 mm 1 mps 741 mmHg 94%
    09:00 +14°C° 0.5 mm 1 mps 741 mmHg 94%
    10:00 +14°C° 0.5 mm 1 mps 741 mmHg 94%
    11:00 +14°C° 0.5 mm 1 mps 742 mmHg 95%
    12:00 +14°C° 0.2 mm 1 mps 742 mmHg 94%
    13:00 +15°C° 0.2 mm 1 mps 742 mmHg 93%
    14:00 +15°C° 0.2 mm 1 mps 742 mmHg 92%
    15:00 +15°C° 0.1 mm 1 mps 742 mmHg 91%
    16:00 +15°C° 0.1 mm 1 mps 742 mmHg 91%
    17:00 +15°C° 0.1 mm 1 mps 743 mmHg 91%
    18:00 +14°C° 0 mm 1 mps 743 mmHg 92%
    19:00 +14°C° 0 mm 1 mps 743 mmHg 93%
    20:00 +14°C° 0 mm 1 mps 743 mmHg 94%
    21:00 +13°C° 0 mm 1 mps 743 mmHg 94%
    22:00 +13°C° 0 mm 1 mps 743 mmHg 94%
    23:00 +13°C° 0 mm 1 mps 743 mmHg 94%
    Show more